TimeCST,TemperatureF,Dew PointF,Humidity,Sea Level PressureIn,VisibilityMPH,Wind Direction,Wind SpeedMPH,Gust SpeedMPH,PrecipitationIn,Events,Conditions,WindDirDegrees,DateUTC
12:15 AM,44.6,32.0,61,30.17,10.0,Calm,Calm,-,N/A,,Clear,0,2012-11-07 06:15:00
12:35 AM,44.6,32.0,61,30.17,10.0,NNE,4.6,-,N/A,,Clear,30,2012-11-07 06:35:00
12:55 AM,42.8,32.0,66,30.17,10.0,North,3.5,-,N/A,,Clear,360,2012-11-07 06:55:00
1:15 AM,41.0,32.0,70,30.17,10.0,WNW,3.5,-,N/A,,Clear,300,2012-11-07 07:15:00
1:35 AM,41.0,32.0,70,30.17,10.0,West,5.8,-,N/A,,Clear,260,2012-11-07 07:35:00
1:55 AM,41.0,32.0,70,30.17,10.0,NW,5.8,-,N/A,,Clear,310,2012-11-07 07:55:00
2:15 AM,41.0,32.0,70,30.17,10.0,WNW,4.6,-,N/A,,Clear,290,2012-11-07 08:15:00
2:55 AM,41.0,32.0,70,30.17,10.0,Calm,Calm,-,N/A,,Clear,0,2012-11-07 08:55:00
3:15 AM,37.4,32.0,81,30.17,10.0,North,3.5,-,N/A,,Clear,10,2012-11-07 09:15:00
3:35 AM,37.4,32.0,81,30.17,10.0,North,3.5,-,N/A,,Clear,10,2012-11-07 09:35:00
3:55 AM,37.4,32.0,81,30.17,10.0,Calm,Calm,-,N/A,,Clear,0,2012-11-07 09:55:00
4:15 AM,35.6,30.2,81,30.17,10.0,WNW,3.5,-,N/A,,Clear,300,2012-11-07 10:15:00
4:35 AM,35.6,30.2,81,30.18,10.0,West,3.5,-,N/A,,Clear,270,2012-11-07 10:35:00
4:55 AM,35.6,30.2,81,30.18,10.0,North,3.5,-,N/A,,Clear,360,2012-11-07 10:55:00
5:15 AM,37.4,30.2,75,30.18,10.0,Calm,Calm,-,N/A,,Clear,0,2012-11-07 11:15:00
5:35 AM,37.4,30.2,75,30.18,10.0,NNE,4.6,-,N/A,,Clear,20,2012-11-07 11:35:00
6:15 AM,35.6,30.2,81,30.18,10.0,NE,5.8,-,N/A,,Clear,40,2012-11-07 12:15:00
6:35 AM,37.4,30.2,75,30.18,10.0,NE,6.9,-,N/A,,Clear,50,2012-11-07 12:35:00
6:55 AM,35.6,30.2,81,30.18,10.0,Calm,Calm,-,N/A,,Clear,0,2012-11-07 12:55:00
7:15 AM,33.8,28.4,81,30.19,10.0,Calm,Calm,-,N/A,,Clear,0,2012-11-07 13:15:00
7:35 AM,33.8,28.4,81,30.19,10.0,Calm,Calm,-,N/A,,Clear,0,2012-11-07 13:35:00
7:55 AM,37.4,30.2,75,30.19,10.0,Calm,Calm,-,N/A,,Clear,0,2012-11-07 13:55:00
8:15 AM,39.2,30.2,70,30.21,10.0,Calm,Calm,-,N/A,,Clear,0,2012-11-07 14:15:00
8:35 AM,41.0,32.0,70,30.21,10.0,Calm,Calm,-,N/A,,Clear,0,2012-11-07 14:35:00
8:55 AM,44.6,32.0,61,30.21,10.0,Calm,Calm,-,N/A,,Clear,0,2012-11-07 14:55:00
9:15 AM,50.0,32.0,50,30.20,10.0,Calm,Calm,-,N/A,,Clear,0,2012-11-07 15:15:00
9:35 AM,53.6,32.0,44,30.20,10.0,SE,3.5,-,N/A,,Clear,130,2012-11-07 15:35:00
10:15 AM,60.8,28.4,29,30.19,10.0,SSE,6.9,-,N/A,,Clear,160,2012-11-07 16:15:00
10:35 AM,60.8,26.6,27,30.18,10.0,South,9.2,-,N/A,,Clear,170,2012-11-07 16:35:00
10:55 AM,62.6,28.4,27,30.18,10.0,South,8.1,-,N/A,,Clear,170,2012-11-07 16:55:00
11:15 AM,62.6,28.4,27,30.17,10.0,South,9.2,-,N/A,,Clear,170,2012-11-07 17:15:00
11:35 AM,64.4,28.4,26,30.17,10.0,SSW,8.1,-,N/A,,Clear,200,2012-11-07 17:35:00
12:15 PM,66.2,28.4,24,30.14,10.0,SSE,8.1,-,N/A,,Clear,160,2012-11-07 18:15:00
12:35 PM,66.2,28.4,24,30.12,10.0,South,9.2,-,N/A,,Clear,170,2012-11-07 18:35:00
1:15 PM,69.8,26.6,20,30.09,10.0,SSE,8.1,16.1,N/A,,Clear,150,2012-11-07 19:15:00
1:35 PM,69.8,28.4,21,30.07,10.0,South,13.8,17.3,N/A,,Clear,170,2012-11-07 19:35:00
1:55 PM,69.8,28.4,21,30.07,10.0,South,12.7,17.3,N/A,,Clear,190,2012-11-07 19:55:00
2:15 PM,71.6,26.6,19,30.06,10.0,South,11.5,26.5,N/A,,Clear,190,2012-11-07 20:15:00
2:35 PM,73.4,26.6,18,30.05,10.0,SSE,12.7,19.6,N/A,,Clear,160,2012-11-07 20:35:00
2:55 PM,71.6,26.6,19,30.04,10.0,South,15.0,-,N/A,,Clear,190,2012-11-07 20:55:00
3:15 PM,71.6,26.6,19,30.04,10.0,South,11.5,-,N/A,,Clear,180,2012-11-07 21:15:00
3:35 PM,71.6,26.6,19,30.03,10.0,South,16.1,-,N/A,,Clear,170,2012-11-07 21:35:00
3:55 PM,71.6,26.6,19,30.03,10.0,South,12.7,18.4,N/A,,Clear,170,2012-11-07 21:55:00
4:15 PM,71.6,26.6,19,30.03,10.0,South,13.8,18.4,N/A,,Clear,170,2012-11-07 22:15:00
4:35 PM,69.8,26.6,20,30.03,10.0,SSE,15.0,-,N/A,,Clear,160,2012-11-07 22:35:00
5:15 PM,68.0,28.4,23,30.03,10.0,South,9.2,-,N/A,,Clear,170,2012-11-07 23:15:00
5:35 PM,66.2,28.4,24,30.03,10.0,SSE,8.1,-,N/A,,Clear,160,2012-11-07 23:35:00
5:55 PM,62.6,28.4,27,30.03,10.0,SSE,8.1,-,N/A,,Clear,150,2012-11-07 23:55:00
6:15 PM,62.6,30.2,30,30.03,10.0,SSE,11.5,-,N/A,,Clear,150,2012-11-08 00:15:00
6:35 PM,60.8,30.2,31,30.03,10.0,SE,11.5,-,N/A,,Clear,140,2012-11-08 00:35:00
6:55 PM,60.8,30.2,31,30.02,10.0,SSE,10.4,-,N/A,,Clear,150,2012-11-08 00:55:00
7:15 PM,60.8,30.2,31,30.02,10.0,SE,10.4,-,N/A,,Clear,140,2012-11-08 01:15:00
7:35 PM,59.0,30.2,34,30.03,10.0,SE,11.5,-,N/A,,Clear,140,2012-11-08 01:35:00
7:55 PM,59.0,30.2,34,30.03,10.0,SE,11.5,-,N/A,,Clear,140,2012-11-08 01:55:00
8:15 PM,59.0,30.2,34,30.02,10.0,SSE,10.4,-,N/A,,Clear,150,2012-11-08 02:15:00
8:55 PM,59.0,30.2,34,30.02,10.0,SSE,12.7,-,N/A,,Clear,150,2012-11-08 02:55:00
9:15 PM,59.0,30.2,34,30.02,10.0,SSE,13.8,-,N/A,,Clear,150,2012-11-08 03:15:00
9:35 PM,57.2,30.2,36,30.02,10.0,SSE,13.8,-,N/A,,Clear,150,2012-11-08 03:35:00
9:55 PM,57.2,30.2,36,30.02,10.0,SSE,13.8,19.6,N/A,,Clear,150,2012-11-08 03:55:00
10:15 PM,55.4,30.2,38,30.02,10.0,SSE,12.7,-,N/A,,Clear,150,2012-11-08 04:15:00
10:35 PM,55.4,30.2,38,30.02,10.0,SSE,13.8,-,N/A,,Clear,150,2012-11-08 04:35:00
11:15 PM,55.4,30.2,38,30.01,10.0,SSE,13.8,-,N/A,,Clear,150,2012-11-08 05:15:00
11:35 PM,53.6,30.2,41,30.00,10.0,SSE,13.8,-,N/A,,Clear,150,2012-11-08 05:35:00
11:55 PM,53.6,30.2,41,29.99,10.0,SE,12.7,-,N/A,,Clear,140,2012-11-08 05:55:00